SCP
0 0 0 0 0 0 0 0 0 0 0 0 0 0 0 0 0 0 0 0 0 0 0 0 0 0 0 0 0 0 0 0 0 0 0 0 0 0 0 0 0 0 0
0 0 0 0 0 0 0 0 0 0 0 0 0 0 0 0 0 0 0 0 0 0 0 0 0 0 0 0 0 0 0 0 0 0 0 0 0 0 0 0 0 0 0
0 0 0 0 0 0 0 0 0 0 0 0 0 0 0 0 0 0 0 0 0 0 0 0 0 0 0 0 0 0 0 0 0 0 0 0 0 0 0 0 0 0 0
0 0 0 0 0 0 0 0 0 0 0 0 0 0 0 0 0 0 0 0 0 0 0 0 0 0 0 0 0 0 0 0 0 0 0 0 0 0 0 0 0 0 0
0 0 0 0 0 0 0 0 0 0 0 0 0 0 0 0 0 0 0 0 0 0 0 0 0 0 0 0 0 0 0 0 0 0 0 0 0 0 0 0 0 0 0
0 0 0 0 0 0 0 0 0 0 0 0 0 0 0 0 0 0 0 0 0 0 0 0 0 0 0 0 0 0 0 0 0 0 0 0 0 0 0 0 0 0 0
0 0 0 0 0 0 0 0 0 0 0 0 0 0 0 0 0 0 0 0 0 0 0 0 0 0 0 0 0 0 0 0 0 0 0 0 0 0 0 0 0 0 0
0 0 0 0 0 0 0 0 0 0 0 0 0 0 0 0 0 0 0 0 0 0 0 0 0 0 0 0 0 0 0 0 0 0 0 0 0 0 0 0 0 0 0
0 0 0 0 0 0 0 0 0 0 0 0 0 0 0 0 0 0 0 0 0 0 0 0 0 0 0 0 0 0 0 0 0 0 0 0 0 0 0 0 0 0 0
0 0 0 0 0 0 0 0 0 0 0 0 0 0 0 0 0 0 0 0 0 0 0 0 0 0 0 0 0 0 0 0 0 0 0 0 0 0 0 0 0 0 0
0 0 0 0 0 0 0 0 0 0 0 0 0 0 0 0 0 0 0 0 0 0 0 0 0 0 0 0 0 0 0 0 0 0 0 0 0 0 0 0 0 0 0
0 0 0 0 0 0 0 0 0 0 0 0 0 0 0 0 0 0 0 0 0 0 0 0 0 0 0 0 0 0 0 0 0 0 0 0 0 0 0 0 0 0 0
0 0 0 0 0 0 0 0 0 0 0 0 0 0 0 0 0 0 0 0 0 0 0 0 0 0 0 0 0 0 0 0 0 0 0 0 0 0 0 0 0 0 0
0 0 0 0 0 0 0 0 0 0 0 0 0 0 0 0 0 0 0 0 0 0 0 0 0 0 0 0 0 0 0 0 0 0 0 0 0 0 0 0 0 0 0
0 0 0 0 0 0 0 0 0 0 0 0 0 0 0 0 0 0 0 0 0 0 0 0 0 0 -0 -0 -0 0 0 0 0 0 0 0 0 0 0 0 0 0 0
0 0 0 0 0 0 0 0 0 0 0 0 0 0 0 0 0 0 0 0 0 0 0 0 0 0 -0 -0 -0 -0 0 0 0 0 0 0 0 0 0 0 0 0 0
0 0 0 0 0 0 0 0 0 0 0 0 0 0 0 0 0 0 0 0 0 0 0 0 0 0 0 -0 -0 -0 -0 0 0 0 0 0 0 0 0 0 0 0 0
0 0 0 0 0 0 0 0 0 0 0 0 0 0 0 0 0 0 0 0 0 0 0 0 0 0 0 0 0 0 0 -0 0 0 0 0 0 0 0 0 0 0 0
0 0 0 0 0 0 0 0 0 0 0 0 0 0 0 0 0 0 0 0 0 0 0 0 0 0 0 0 0 0 0 0 0 0 0 0 0 0 0 0 0 0 0
0 0 0 0 0 0 0 0 0 0 0 0 0 0 0 0 0 0 0 0 0 0 0 0 0 0 0 0 0 0 0 0 0 0 0 0 0 0 0 0 0 0 0
0 0 0 0 0 0 0 0 0 0 0 0 0 0 0 0 0 0 0 0 0 0 0 0 0 0 0 0 0 0 0 0 0 0 0 0 0 0 0 0 0 0 0
0 0 0 0 0 0 0 0 0 0 0 0 0 0 0 0 0 0 0 0 0 0 0 0 0 0 0 0 0 0 0 0 0 0 0 0 0 0 0 0 0 0 0
0 0 0 0 0 0 0 0 0 0 0 0 0 0 0 0 0 0 0 0 0 0 0 0 0 0 0 0 0 0 0 0 0 0 0 0 0 0 0 0 0 0 0
0 0 0 0 0 0 0 0 0 0 0 0 0 0 0 0 0 0 0 0 0 0 0 0 0 0 0 0 0 0 0 0 0 0 0 0 0 0 0 0 0 0 0
0 0 0 0 0 0 0 0 0 0 0 0 0 0 0 0 0 0 0 0 0 0 0 0 0 0 0 0 0 0 0 0 0 0 0 0 0 0 0 0 0 0 0
0 0 0 0 0 0 0 0 0 0 0 0 0 0 0 0 0 0 0 0 0 0 0 0 0 0 0 0 0 0 0 0 0 0 0 0 0 0 0 0 0 0 0
Wind_Speed
3 3 2 2 1 1 2 2 1 1 1 1 1 1 1 1 1 1 1 4 4 3 3 3 3 3 4 4 4 4 3 4 4 3 3 3 3 3 2 2 3 3 3
4 3 3 2 1 1 1 2 2 1 1 1 1 1 1 1 1 1 2 2 3 3 3 3 3 3 3 3 4 3 3 3 3 3 4 4 3 3 4 3 3 4 4
4 4 3 2 2 1 1 1 1 1 1 0 1 1 1 1 1 1 2 1 1 3 3 3 3 3 3 4 4 3 3 3 3 3 3 4 4 4 5 4 4 4 5
5 4 3 3 2 2 1 2 1 1 1 0 0 1 0 0 0 1 1 1 1 1 1 2 3 3 3 4 4 4 4 3 3 3 3 4 4 5 5 5 5 5 5
5 4 3 2 2 2 1 2 2 2 1 0 0 0 1 0 0 1 1 1 1 1 1 1 2 2 2 3 4 5 4 4 4 4 4 5 5 5 5 6 6 6 6
5 4 3 3 3 2 1 1 2 1 1 1 0 1 1 1 0 1 1 0 0 1 0 0 1 1 2 3 4 4 4 5 4 4 4 4 5 5 6 7 7 7 7
4 4 3 3 3 3 2 2 2 2 1 1 2 2 2 2 1 1 1 1 1 1 1 1 1 1 1 2 3 3 4 5 5 4 4 4 5 5 6 7 7 7 8
3 4 4 3 3 3 2 2 2 2 1 1 2 2 1 3 3 2 1 1 1 1 1 1 1 1 1 0 1 2 4 5 6 6 6 6 6 6 7 8 8 8 9
3 3 4 4 3 3 3 3 3 3 2 0 1 3 2 1 1 2 2 1 1 1 2 2 2 1 1 0 1 2 3 4 6 7 7 7 7 8 9 9 9 9 9
2 2 4 3 3 3 4 3 2 2 3 2 0 0 1 2 2 1 2 2 2 1 2 2 2 2 1 1 1 2 3 4 5 7 7 8 8 8 9 9 9 9 9
1 1 2 3 3 3 3 3 3 2 2 3 2 1 1 1 1 2 2 2 2 2 2 2 2 1 2 1 1 2 3 4 5 7 8 9 9 9 9 9 8 9 9
0 1 2 2 3 2 3 3 3 3 2 2 2 2 2 2 2 1 2 2 2 2 2 2 1 1 1 1 2 3 3 4 6 7 9 9 8 8 8 8 7 7 8
1 1 1 2 2 2 2 3 3 3 3 3 3 2 2 2 2 2 2 1 1 2 2 1 1 1 1 1 2 4 4 5 6 8 9 9 8 8 9 9 8 8 8
2 1 1 2 2 3 2 2 3 3 3 3 3 3 2 2 2 2 2 2 1 2 2 2 1 1 1 1 2 4 3 5 6 8 8 8 7 7 8 9 8 8 8
1 1 2 2 2 2 2 2 2 2 3 3 3 3 2 2 2 2 2 3 3 2 3 2 1 1 1 1 3 2 3 5 6 7 7 7 7 7 7 7 7 7 7
2 1 2 2 2 2 2 2 2 2 3 3 2 3 2 1 1 1 2 2 2 3 3 2 2 2 2 2 3 2 3 7 7 7 7 7 7 7 7 7 7 7 8
2 2 2 2 2 2 2 3 2 2 3 2 2 3 3 2 2 1 1 1 2 2 3 3 2 1 2 2 3 3 3 3 4 8 8 8 7 7 7 7 7 8 8
2 2 2 2 2 2 2 3 3 3 3 3 3 2 2 1 2 2 2 2 2 2 3 4 2 2 2 2 3 3 3 3 3 7 8 8 8 7 7 7 7 8 7
2 2 2 2 2 2 2 2 3 3 3 3 3 3 3 2 2 2 2 2 2 2 2 3 3 2 2 2 2 3 3 3 4 5 7 7 8 8 8 7 7 8 8
2 2 3 3 2 2 2 2 2 3 3 3 3 3 3 4 4 3 3 3 2 1 1 2 2 2 2 2 1 2 3 3 3 3 4 5 6 8 8 8 7 7 8
2 2 2 2 2 2 2 3 3 3 4 3 3 3 3 4 5 4 3 3 3 2 2 2 2 2 2 2 2 2 3 3 3 2 3 3 3 3 4 6 7 7 8
1 1 1 2 2 2 3 4 3 3 3 4 3 3 3 3 4 4 5 5 4 4 3 3 3 4 4 3 2 2 2 2 4 2 2 4 2 4 3 3 6 8 8
2 2 2 2 2 3 4 5 6 3 3 3 4 3 3 3 3 2 3 4 4 6 6 4 5 5 4 4 3 3 3 3 4 3 1 4 3 4 4 4 8 8 8
2 2 2 3 3 3 5 5 5 3 3 3 3 4 4 3 3 3 2 2 2 3 4 4 4 5 5 4 4 4 4 3 3 2 2 4 3 3 3 3 8 8 7
3 3 3 3 3 4 5 5 5 2 3 3 3 3 4 4 6 5 3 3 3 3 4 5 5 5 7 7 4 2 2 2 4 3 2 2 2 3 3 3 4 6 7
3 3 3 3 3 4 5 6 6 2 3 3 3 3 6 6 7 6 4 4 4 4 3 2 3 4 4 4 5 4 4 3 3 3 2 2 2 2 4 3 2 3 4
Wind_Direction
156 153 153 145 145 153 163 156 156 160 183 241 245 231 242 239 216 198 212 214 213 212 216 221 237 243 249 250 251 254 259 252 246 240 239 240 247 248 256 276 286 282 280
157 157 155 147 159 178 173 164 169 173 206 220 261 251 227 232 223 205 198 211 217 223 239 243 248 258 267 270 268 262 261 256 257 252 245 242 243 250 257 267 275 278 282
161 159 158 159 173 176 157 146 148 158 180 220 271 282 246 233 208 206 192 197 214 228 237 242 246 258 275 282 281 282 278 271 262 260 262 259 254 258 261 263 267 275 275
162 159 160 169 173 157 150 155 155 155 164 151 302 294 294 252 196 210 194 187 185 201 234 249 256 262 273 284 286 284 282 275 271 268 268 271 266 266 267 264 265 268 268
163 160 160 164 159 148 147 167 158 159 166 157 278 304 311 268 223 193 185 188 184 178 196 252 252 270 288 290 292 292 290 281 273 270 272 268 266 267 269 268 266 265 266
165 158 155 159 155 148 150 158 156 148 158 162 85 352 334 334 17 127 156 152 189 176 166 259 269 272 274 283 290 295 303 292 280 278 286 277 267 269 271 270 269 267 267
164 160 157 156 157 163 168 158 143 148 142 111 76 25 1 10 25 19 39 67 17 351 3 313 267 258 280 280 287 295 303 303 298 291 292 286 273 272 272 274 274 271 268
160 162 162 163 162 159 154 148 133 146 160 124 118 109 14 350 350 353 9 43 24 10 4 341 312 271 273 282 296 306 305 302 304 300 297 289 280 275 276 274 276 275 272
163 156 160 164 167 165 171 172 163 150 164 170 126 140 144 220 305 331 349 7 11 18 1 344 338 331 306 246 287 311 314 312 308 304 301 296 288 282 276 275 275 276 277
161 166 160 165 176 174 171 176 170 160 156 168 160 86 157 158 164 309 327 340 357 359 348 341 332 330 350 354 289 300 316 310 305 302 302 300 292 288 283 280 280 281 280
166 168 169 163 171 179 177 171 162 165 162 170 167 156 106 92 148 171 257 308 332 315 317 309 310 328 352 1 334 314 326 319 314 309 305 302 297 295 295 289 287 287 285
230 200 170 172 170 175 188 180 173 175 176 170 168 163 166 170 181 172 211 256 286 292 301 298 314 331 349 3 335 333 329 326 323 318 314 310 308 305 308 300 293 291 292
220 246 187 179 177 176 191 176 173 189 185 179 185 187 187 190 182 175 183 230 279 295 299 305 301 328 354 4 340 343 337 333 330 326 322 323 323 321 313 309 297 294 293
210 214 207 198 189 179 181 178 179 190 181 185 193 190 189 202 186 180 174 175 272 291 284 277 307 316 351 347 333 342 330 331 328 327 326 328 330 328 325 317 308 303 302
196 186 197 196 197 180 178 183 184 191 185 189 193 195 199 207 192 191 180 174 175 234 261 256 273 302 324 322 322 329 315 316 319 321 323 324 323 322 320 318 314 309 304
191 179 208 201 196 180 171 184 186 189 186 194 188 189 203 208 191 186 183 184 182 199 242 245 246 275 295 306 310 316 303 309 310 314 315 314 311 312 314 313 315 313 306
188 191 207 207 205 197 182 185 190 185 184 194 194 189 209 196 186 196 188 187 199 193 238 268 252 269 271 286 304 306 301 300 298 306 306 305 305 306 308 309 311 310 308
192 189 197 205 215 215 201 192 189 190 190 196 202 190 217 204 198 203 199 208 216 210 216 259 276 278 270 273 283 293 299 300 292 302 302 299 300 303 303 305 309 309 307
191 187 187 208 220 225 217 209 195 196 200 205 204 197 209 199 216 216 210 216 229 232 216 238 269 272 280 278 294 292 290 294 292 295 296 295 299 299 297 299 304 305 306
190 199 202 212 216 222 222 219 211 209 210 217 215 208 209 208 215 216 218 218 218 222 224 243 270 282 281 283 285 292 302 299 295 299 294 294 301 299 294 294 300 302 302
194 201 203 216 223 223 223 219 220 216 212 220 224 218 217 224 229 226 223 213 204 212 224 242 264 280 277 277 268 267 285 300 293 289 301 295 296 293 291 292 294 295 298
211 196 200 216 231 248 258 244 228 215 215 214 223 230 229 230 239 249 248 238 220 213 221 230 252 256 264 258 259 261 276 301 295 296 306 294 280 279 276 268 281 286 289
221 220 221 219 238 257 270 270 254 225 214 216 216 220 237 242 250 231 254 264 259 257 246 236 240 247 248 239 238 257 260 263 264 269 282 283 283 279 276 278 285 283 283
220 227 230 228 236 254 267 273 266 233 212 218 220 219 222 232 234 227 224 245 253 260 261 248 236 243 244 237 227 239 250 267 272 265 223 268 280 276 286 282 285 281 281
233 233 229 228 234 255 265 270 269 216 216 230 229 223 223 224 243 250 230 234 259 268 273 265 263 262 261 260 246 230 244 268 279 267 218 242 272 288 286 277 282 292 298
235 238 236 229 231 246 264 272 269 222 223 234 235 232 239 242 249 254 230 223 246 256 251 267 274 280 274 263 258 234 221 240 260 265 222 220 255 292 296 282 284 297 301